Flag for U.S.A. Weather past 2 weeks in South Bend, Indiana, U.S.A.

Now
41 °F

Clear.


Feels Like: 33 °F
Forecast: 39 / 54 °F
Wind: 15 mph from Southwest

Location: Michiana Regional Airport

Current Time: Apr 21, 2015 at 8:36:56 AM

Latest Report: Apr 21, 2015 at 7:54 AM


Visibility: 10 mi

Pressure: 29.64 "Hg

Humidity: 67%

Dew point: 31 °F

Location of South BendLocation

Historic Weather in South Bend — Graph

°F

South Bend temperature yesterday

Maximum temperature yesterday: 57 °F (at 12:54 AM)
Minimum temperature yesterday: 44 °F (at 10:54 PM)
Average temperature yesterday: 51 °F

Past Weeks' High & Low Weather Summary

 TemperatureHumidityPressure
High78 °F (Apr 18, 2:54 PM)100% (Apr 9, 6:54 AM)30.30 "Hg (Apr 9, 6:54 AM)
Low34 °F (Apr 11, 2:54 AM)17% (Apr 15, 7:54 PM)29.24 "Hg (Apr 20, 1:54 AM)
Average55 °F60%29.98 "Hg
* Reported Apr 6 6:54 AM — Apr 21 6:54 AM, South Bend, Weather by CustomWeather, © 2015

Note: Actual official high and low records may vary slightly from our data, if they occured in-between our weather recording intervals... More about our weather records

Advertising

South Bend weather history for previous 24 hours

 ConditionsComfort  
Time TempWeatherWind HumidityBarometerVisibility
6:54 AM
Tue, Apr 21
40 °FClear.14 mph70%29.63 "Hg10 mi
5:54 AM41 °FClear.13 mph70%29.61 "Hg10 mi
4:54 AM43 °FPartly cloudy.13 mph65%29.62 "Hg10 mi
3:54 AM43 °FOvercast.15 mph68%29.63 "Hg10 mi
2:54 AM43 °FPartly cloudy.14 mph71%29.64 "Hg10 mi
1:54 AM44 °FOvercast.13 mph68%29.65 "Hg10 mi
12:54 AM44 °FMostly cloudy.12 mph65%29.64 "Hg10 mi
11:54 PM
Mon, Apr 20
45 °FMostly cloudy.13 mph56%29.64 "Hg10 mi
10:54 PM44 °FPassing clouds.15 mph58%29.65 "Hg10 mi
9:54 PM46 °FPassing clouds.15 mph54%29.63 "Hg10 mi
8:54 PM47 °FOvercast.18 mph56%29.60 "Hg10 mi
7:54 PM47 °FMostly cloudy.14 mph64%29.58 "Hg10 mi
6:54 PM48 °FMostly cloudy.15 mph61%29.56 "Hg10 mi
5:54 PM49 °FMostly cloudy.21 mph61%29.54 "Hg10 mi
4:54 PM47 °FMostly cloudy.20 mph77%29.52 "Hg10 mi
3:54 PM49 °FMostly cloudy.17 mph69%29.49 "Hg10 mi
2:54 PM48 °FLight rain. Overcast.18 mph80%29.45 "Hg9 mi
1:54 PM49 °FOvercast.21 mph77%29.42 "Hg10 mi
1:03 PM50 °FOvercast.18 mph77%29.39 "Hg10 mi
12:54 PM50 °FOvercast.21 mph77%29.38 "Hg10 mi
11:54 AM52 °FOvercast.24 mph77%29.34 "Hg10 mi
10:54 AM52 °FMostly cloudy.20 mph83%29.31 "Hg10 mi
9:54 AM53 °FMostly cloudy.22 mph86%29.28 "Hg10 mi
8:54 AM57 °FLight rain. Fog.16 mph87%29.27 "Hg4 mi
Weather by CustomWeather, © 2015

See weather overviewHow to use our weather pages